Location: Biharia
(46.4333°N, 22.8000°E)
Time: 00:40:54
(UTC+00:00)

YAOGAN 1 - Pass Details

Date: 16 October 2021
Orbit: 618 x 620 km, 97.9° (Epoch: 02 December)

Event Time Altitude Azimuth Distance (km) Brightness Sun altitude
Rises 16:26:07 0° 140° (SE) 2,886 5.6 -8.6°
Reaches altitude 10° 16:28:27 10° 130° (SE) 1,985 4.7 -9.0°
Maximum altitude 16:32:17 32° 68° (ENE) 1,070 3.3 -9.7°
Drops below altitude 10° 16:36:09 10° 5° (N) 1,999 5.1 -10.4°
Sets 16:38:30 0° 356° (N) 2,910 6.0 -10.8°
